Regional Weather Roundup
Issued by NWS Albany, NY

Home | Current Version | Previous Version | Text Only | Print | Product List | Glossary On
Versions: 1 2 3 4 5 6 7 8 9 10 11 12 13 14 15 16 17 18 19 20 21 22 23 24 25 26 27 28 29 30 31 32 33 34 35 36 37 38 39 40 41 42 43 44 45 46 47 48 49 50
079
ASUS41 KALY 161910
RWRALY

NEW YORK STATE HOURLY WEATHER ROUNDUP
NATIONAL WEATHER SERVICE ALBANY NY
300 PM EDT MON OCT 16 2017

NOTE: "FAIR" INDICATES FEW OR NO CLOUDS BELOW 12,000 FEET WITH NO
SIGNIFICANT WEATHER AND/OR NO OBSTRUCTIONS TO VISIBILITY.

NYZ032-033-038>043-046>054-057>066-NYZ062>081-082-084-162000-
EAST


CITY           SKY/WX    TMP DP  RH WIND       PRES   REMARKS
ALBANY         CLOUDY    52  37  56 W20       30.05S
GLENS FALLS    CLOUDY    53  35  50 N15       30.03S
POUGHKEEPSIE   CLOUDY    54  38  54 NW8       30.02S
NEWBURGH       PTSUNNY   55  43  62 NW14      30.04R
MONTGOMERY     CLOUDY    55  40  56 NW16      30.04R
WHITE PLAINS   CLOUDY    58  41  53 NW13G23   30.01R
ISLIP          CLOUDY    58  45  62 NW14      29.99R
NEW YORK CITY  PTSUNNY   58  42  55 NW17G24   30.01S
CENTRAL PARK   CLOUDY    58  40  51 NW8       30.05R
$$

NYZ005>009-017-018-044>046-055-056-162000-
CENTRAL


CITY           SKY/WX    TMP DP  RH WIND       PRES   REMARKS
FULTON         LGT RAIN  43  37  79 NW10      30.17R
SYRACUSE       PTSUNNY   45  37  73 NW16      30.15R
ROME           PTSUNNY   50  37  61 W10       30.12S
ELMIRA         CLOUDY    54  36  50 N13G20    30.12F
BINGHAMTON     CLOUDY    46  36  68 N9        30.10S
MONTICELLO     CLOUDY    50  35  56 NW21G26   30.05F
$$

NYZ026>034-041>043-087-162000-
NORTH


CITY           SKY/WX    TMP DP  RH WIND       PRES   REMARKS
WATERTOWN      PTSUNNY   47  36  65 W7        30.15S
FORT DRUM      NOT AVBL
OGDENSBURG     PTSUNNY   47  32  57 NW9       30.14R
MASSENA        CLOUDY    47  34  60 NW10      30.13S
SARANAC LAKE   MIX PCPN  36  34  92 NW8       30.06S WCI  30
PLATTSBURGH    CLOUDY    47  31  53 NW6       30.10R
$$

NYZ001>004-010>016-019>021-085-162000-
WEST


CITY           SKY/WX    TMP DP  RH WIND       PRES   REMARKS
NIAGARA FALLS  PTSUNNY   48  32  53 NW13      30.21S
BUFFALO        PTSUNNY   47  32  56 W14       30.21R
DUNKIRK        PTSUNNY   48  34  58 W9        30.23S
JAMESTOWN      MOSUNNY   45  33  63 NW13      30.20S
WELLSVILLE     SUNNY     46  29  51 NW18G24   30.15S
ROCHESTER      PTSUNNY   48  35  60 N12       30.19R
$$

             KEY
       WCI = WIND CHILL INDEX
       VSB = VISIBILITY
       HX  = HEAT INDEX
$$




USA.gov is the U.S. government's official web portal to all federal, state and local government web resources and services.